Location: Newark
(5.5500°N, 0.2500°W)
Time: 14:32:46
(UTC+00:00)

LightSail 2 - Pass Details

Date: 20 September 2019
Orbit: 707 x 722 km, 24.0° (Epoch: 18 October)

Event Time Altitude Azimuth Distance (km) Brightness Sun altitude
Exits shadow 03:57:32 23° 10° (N) 1,476 6.9 -29.0°
Drops below altitude 10° 04:00:13 10° 38° (NE) 2,157 8.1 -28.3°
Sets 04:02:58 0° 50° (NE) 3,075 9.2 -27.6°
